Flag for Canada Weather past 2 weeks in Oshawa, Ontario, Canada

Now
36 °F

Clear.


Feels Like: 27 °F
Forecast: 33 / 50 °F
Wind: 12 mph from Northwest

Location: Toronto Buttonville


UV Index: 5 (Moderate)

Visibility: 15 mi


Pressure: 30.31 "Hg

Humidity: 70%

Dew point: 27 °F

Location of OshawaLocation

Historic Weather in Oshawa

°F

Oshawa temperature yesterday

Maximum temperature yesterday: 50 °F (at 11:00 AM)
Minimum temperature yesterday: 37 °F (at 1:00 AM)
Average temperature yesterday: 43 °F

Past Weeks' High & Low Weather Summary

 TemperatureHumidityPressure
High70 °F (Apr 13, 5:00 PM)100% (Apr 4, 2:00 PM)30.58 "Hg (Apr 4, 2:00 PM)
Low19 °F (Apr 16, 5:00 AM)25% (Apr 11, 2:00 PM)29.33 "Hg (Apr 8, 6:00 AM)
Average42 °F67%29.96 "Hg
* Reported Apr 4 2:00 AM — Apr 19 2:00 AM, Oshawa, Weather by CustomWeather, © 2014

Note: Actual official high and low records may vary slightly from our data, if they occured in-between our weather recording intervals... More about our weather records

Advertising

Historic Weather Conditions — Data for Previous 24 hours

 ConditionsComfort  
Time TempWeatherWind HumidityBarometerVisibility
2:00 AM
Apr 19
36 °FClear.12 mph70%30.31 "Hg15 mi
1:00 AM36 °FClear.10 mph70%30.32 "Hg15 mi
12:00 AM36 °FPassing clouds.9 mph75%30.31 "Hg15 mi
11:00 PM
Apr 18
37 °FPassing clouds.6 mph75%30.30 "Hg15 mi
10:00 PM39 °FPassing clouds.5 mph75%30.29 "Hg15 mi
9:00 PM43 °FPassing clouds.7 mph71%30.27 "Hg15 mi
8:00 PM45 °FPassing clouds.8 mph71%30.25 "Hg15 mi
7:00 PM48 °FPartly sunny.7 mph71%30.24 "Hg15 mi
6:00 PM48 °FOvercast.6 mph76%30.25 "Hg12 mi
5:00 PM45 °FOvercast.3 mph93%30.26 "Hg8 mi
4:00 PM46 °FOvercast.10 mph87%30.25 "Hg12 mi
3:00 PM48 °FMore clouds than sun.5 mph94%30.26 "Hg8 mi
2:00 PM48 °FLight rain. Overcast.No wind82%30.26 "Hg12 mi
1:00 PM50 °FOvercast.2 mph71%30.26 "Hg12 mi
12:00 PM48 °FOvercast.2 mph62%30.27 "Hg12 mi
11:00 AM50 °FMore clouds than sun.7 mph50%30.28 "Hg15 mi
10:00 AM46 °FOvercast.3 mph62%30.30 "Hg15 mi
9:00 AM43 °FOvercast.3 mph71%30.31 "Hg15 mi
8:00 AM43 °FOvercast.2 mph66%30.32 "Hg15 mi
7:00 AM41 °FOvercast.No wind70%30.30 "Hg15 mi
6:00 AM39 °FOvercast.3 mph75%30.29 "Hg15 mi
5:00 AM39 °FOvercast.No wind75%30.29 "Hg15 mi
4:00 AM37 °FOvercast.No wind75%30.30 "Hg15 mi
3:00 AM39 °FOvercast.No wind70%30.32 "Hg15 mi
Weather by CustomWeather, © 2014

See weather overview